contact:dominique.lefevre@mio.osupytheas.fr, maurice.libes@osupytheas.fr, didier.mallarino@osupytheas.fr
Project:EMSO http://www.emso-fr.org/EMSO-France
Depth: 2436.0 m
Title:EMSO Ligure Ouest : Data MII capteur MICROCAT
DateTime_Computer,Latitude,Longitude,Temperature,Conductivity,Pressure,DateTime_Instrument
DateTime_Computer,Latitude,Longitude,degC,S m-1,dbar,DateTime_Instrument
2020-12-10T00:02:17Z,42.805,6.029,13.2976,4.59991,2470.156,2020-12-10T02:03:15Z
2020-12-10T00:05:20Z,42.805,6.029,13.2984,4.59995,2470.171,2020-12-10T02:06:18Z
2020-12-10T00:08:23Z,42.805,6.029,13.2978,4.59999,2470.133,2020-12-10T02:09:21Z
2020-12-10T00:11:26Z,42.805,6.029,13.2984,4.59988,2470.156,2020-12-10T02:12:25Z
2020-12-10T00:14:29Z,42.805,6.029,13.2980,4.59998,2470.156,2020-12-10T02:15:28Z
2020-12-10T00:17:32Z,42.805,6.029,13.2981,4.59991,2470.156,2020-12-10T02:18:31Z
2020-12-10T00:20:35Z,42.805,6.029,13.2981,4.59988,2470.147,2020-12-10T02:21:34Z
2020-12-10T00:23:39Z,42.805,6.029,13.2977,4.59988,2470.194,2020-12-10T02:24:37Z
2020-12-10T00:26:42Z,42.805,6.029,13.2980,4.59992,2470.171,2020-12-10T02:27:40Z
2020-12-10T00:29:45Z,42.805,6.029,13.2983,4.59996,2470.18,2020-12-10T02:30:43Z
2020-12-10T00:32:48Z,42.805,6.029,13.2988,4.59997,2470.147,2020-12-10T02:33:46Z
2020-12-10T00:35:51Z,42.805,6.029,13.2981,4.59992,2470.156,2020-12-10T02:36:50Z
2020-12-10T00:38:54Z,42.805,6.029,13.2983,4.60001,2470.18,2020-12-10T02:39:53Z
2020-12-10T00:41:57Z,42.805,6.029,13.2981,4.59989,2470.156,2020-12-10T02:42:56Z
2020-12-10T00:45:00Z,42.805,6.029,13.2979,4.59991,2470.203,2020-12-10T02:45:59Z
2020-12-10T00:48:04Z,42.805,6.029,13.2978,4.59991,2470.171,2020-12-10T02:49:02Z
2020-12-10T00:51:07Z,42.805,6.029,13.2980,4.59992,2470.194,2020-12-10T02:52:05Z
2020-12-10T00:54:10Z,42.805,6.029,13.2981,4.59998,2470.171,2020-12-10T02:55:08Z
2020-12-10T00:57:13Z,42.805,6.029,13.2978,4.59991,2470.171,2020-12-10T02:58:11Z
2020-12-10T01:00:16Z,42.805,6.029,13.2982,4.59994,2470.18,2020-12-10T03:01:15Z
2020-12-10T01:03:19Z,42.805,6.029,13.2980,4.59988,2470.18,2020-12-10T03:04:18Z
2020-12-10T01:06:22Z,42.805,6.029,13.2978,4.59991,2470.217,2020-12-10T03:07:21Z
2020-12-10T01:09:25Z,42.805,6.029,13.2981,4.59990,2470.203,2020-12-10T03:10:24Z
2020-12-10T01:12:28Z,42.805,6.029,13.2983,4.59990,2470.18,2020-12-10T03:13:27Z
2020-12-10T01:15:32Z,42.805,6.029,13.2978,4.59990,2470.217,2020-12-10T03:16:30Z
2020-12-10T01:18:35Z,42.805,6.029,13.2982,4.59990,2470.203,2020-12-10T03:19:33Z
2020-12-10T01:21:38Z,42.805,6.029,13.2981,4.59994,2470.18,2020-12-10T03:22:36Z
2020-12-10T01:24:41Z,42.805,6.029,13.2981,4.59992,2470.194,2020-12-10T03:25:40Z
2020-12-10T01:27:44Z,42.805,6.029,13.2979,4.59997,2470.171,2020-12-10T03:28:43Z
2020-12-10T01:30:47Z,42.805,6.029,13.2982,4.59988,2470.217,2020-12-10T03:31:46Z
2020-12-10T01:33:50Z,42.805,6.029,13.2981,4.59991,2470.194,2020-12-10T03:34:49Z
2020-12-10T01:36:53Z,42.805,6.029,13.2984,4.59996,2470.18,2020-12-10T03:37:52Z
2020-12-10T01:39:57Z,42.805,6.029,13.2981,4.60002,2470.203,2020-12-10T03:40:55Z
2020-12-10T01:43:00Z,42.805,6.029,13.2982,4.59997,2470.217,2020-12-10T03:43:58Z
2020-12-10T01:46:03Z,42.805,6.029,13.2981,4.60004,2470.227,2020-12-10T03:47:01Z
2020-12-10T01:49:06Z,42.805,6.029,13.2983,4.59999,2470.217,2020-12-10T03:50:04Z
2020-12-10T01:52:09Z,42.805,6.029,13.2983,4.59991,2470.18,2020-12-10T03:53:08Z
2020-12-10T01:55:12Z,42.805,6.029,13.2982,4.59997,2470.227,2020-12-10T03:56:11Z
2020-12-10T01:58:15Z,42.805,6.029,13.2980,4.59994,2470.203,2020-12-10T03:59:14Z
2020-12-10T02:01:18Z,42.805,6.029,13.2983,4.59991,2470.227,2020-12-10T04:02:17Z
2020-12-10T02:04:22Z,42.805,6.029,13.2982,4.59988,2470.217,2020-12-10T04:05:20Z
2020-12-10T02:07:25Z,42.805,6.029,13.2983,4.59999,2470.24,2020-12-10T04:08:23Z
2020-12-10T02:10:28Z,42.805,6.029,13.2986,4.60001,2470.203,2020-12-10T04:11:26Z
2020-12-10T02:13:31Z,42.805,6.029,13.2979,4.59993,2470.227,2020-12-10T04:14:29Z
2020-12-10T02:16:34Z,42.805,6.029,13.2982,4.59997,2470.203,2020-12-10T04:17:33Z
2020-12-10T02:19:37Z,42.805,6.029,13.2982,4.59991,2470.227,2020-12-10T04:20:36Z
2020-12-10T02:22:40Z,42.805,6.029,13.2979,4.59992,2470.227,2020-12-10T04:23:39Z
2020-12-10T02:25:43Z,42.805,6.029,13.2982,4.59988,2470.24,2020-12-10T04:26:42Z
2020-12-10T02:28:47Z,42.805,6.029,13.2985,4.59987,2470.227,2020-12-10T04:29:45Z
2020-12-10T02:31:50Z,42.805,6.029,13.2982,4.59988,2470.25,2020-12-10T04:32:48Z
2020-12-10T02:34:53Z,42.805,6.029,13.2982,4.59987,2470.227,2020-12-10T04:35:51Z
2020-12-10T02:37:56Z,42.805,6.029,13.2984,4.59993,2470.25,2020-12-10T04:38:54Z
2020-12-10T02:40:59Z,42.805,6.029,13.2982,4.59990,2470.217,2020-12-10T04:41:58Z
2020-12-10T02:44:02Z,42.805,6.029,13.2982,4.59988,2470.227,2020-12-10T04:45:01Z
2020-12-10T02:47:05Z,42.805,6.029,13.2986,4.59994,2470.25,2020-12-10T04:48:04Z
2020-12-10T02:50:08Z,42.805,6.029,13.2986,4.59996,2470.227,2020-12-10T04:51:07Z
2020-12-10T02:53:12Z,42.805,6.029,13.2983,4.59997,2470.264,2020-12-10T04:54:10Z
2020-12-10T02:56:15Z,42.805,6.029,13.2983,4.59993,2470.213,2020-12-10T04:57:13Z
2020-12-10T02:59:18Z,42.805,6.029,13.2985,4.59989,2470.264,2020-12-10T05:00:16Z
2020-12-10T03:02:21Z,42.805,6.029,13.2983,4.59989,2470.25,2020-12-10T05:03:19Z
2020-12-10T03:05:24Z,42.805,6.029,13.2982,4.59987,2470.227,2020-12-10T05:06:22Z
2020-12-10T03:08:27Z,42.805,6.029,13.2982,4.59998,2470.287,2020-12-10T05:09:26Z
2020-12-10T03:11:30Z,42.805,6.029,13.2984,4.59995,2470.264,2020-12-10T05:12:29Z
2020-12-10T03:14:33Z,42.805,6.029,13.2980,4.59993,2470.227,2020-12-10T05:15:32Z
2020-12-10T03:17:37Z,42.805,6.029,13.2981,4.59994,2470.227,2020-12-10T05:18:35Z
2020-12-10T03:20:40Z,42.805,6.029,13.2980,4.59990,2470.227,2020-12-10T05:21:38Z
2020-12-10T03:23:43Z,42.805,6.029,13.2977,4.59996,2470.203,2020-12-10T05:24:41Z
2020-12-10T03:26:46Z,42.805,6.029,13.2979,4.59995,2470.24,2020-12-10T05:27:44Z
2020-12-10T03:29:49Z,42.805,6.029,13.2984,4.59998,2470.24,2020-12-10T05:30:47Z
2020-12-10T03:32:52Z,42.805,6.029,13.2979,4.59992,2470.227,2020-12-10T05:33:51Z
2020-12-10T03:35:55Z,42.805,6.029,13.2980,4.59990,2470.264,2020-12-10T05:36:54Z
2020-12-10T03:38:58Z,42.805,6.029,13.2981,4.59989,2470.227,2020-12-10T05:39:57Z
2020-12-10T03:42:02Z,42.805,6.029,13.2976,4.59991,2470.24,2020-12-10T05:43:00Z
2020-12-10T03:45:05Z,42.805,6.029,13.2983,4.59993,2470.25,2020-12-10T05:46:03Z
2020-12-10T03:48:08Z,42.805,6.029,13.2980,4.60000,2470.24,2020-12-10T05:49:06Z
2020-12-10T03:51:11Z,42.805,6.029,13.2982,4.59992,2470.227,2020-12-10T05:52:09Z
2020-12-10T03:54:14Z,42.805,6.029,13.2981,4.59991,2470.273,2020-12-10T05:55:12Z
2020-12-10T03:57:17Z,42.805,6.029,13.2984,4.59993,2470.227,2020-12-10T05:58:16Z
2020-12-10T04:00:20Z,42.805,6.029,13.2980,4.59989,2470.24,2020-12-10T06:01:19Z
2020-12-10T04:03:23Z,42.805,6.029,13.2983,4.59991,2470.264,2020-12-10T06:04:22Z
2020-12-10T04:06:26Z,42.805,6.029,13.2983,4.59991,2470.227,2020-12-10T06:07:25Z
2020-12-10T04:09:30Z,42.805,6.029,13.2979,4.59987,2470.24,2020-12-10T06:10:28Z
2020-12-10T04:12:33Z,42.805,6.029,13.2979,4.59987,2470.203,2020-12-10T06:13:31Z
2020-12-10T04:15:36Z,42.805,6.029,13.2979,4.59993,2470.25,2020-12-10T06:16:34Z
2020-12-10T04:18:39Z,42.805,6.029,13.2980,4.59993,2470.227,2020-12-10T06:19:37Z
2020-12-10T04:21:42Z,42.805,6.029,13.2985,4.59991,2470.227,2020-12-10T06:22:41Z
2020-12-10T04:24:45Z,42.805,6.029,13.2986,4.59989,2470.203,2020-12-10T06:25:44Z
2020-12-10T04:27:48Z,42.805,6.029,13.2982,4.59996,2470.25,2020-12-10T06:28:47Z
2020-12-10T04:30:51Z,42.805,6.029,13.2982,4.59999,2470.24,2020-12-10T06:31:50Z
2020-12-10T04:33:55Z,42.805,6.029,13.2981,4.59990,2470.25,2020-12-10T06:34:53Z
2020-12-10T04:36:58Z,42.805,6.029,13.2980,4.59992,2470.24,2020-12-10T06:37:56Z
2020-12-10T04:40:01Z,42.805,6.029,13.2983,4.59990,2470.25,2020-12-10T06:40:59Z
2020-12-10T04:43:04Z,42.805,6.029,13.2978,4.59995,2470.227,2020-12-10T06:44:02Z
2020-12-10T04:46:07Z,42.805,6.029,13.2979,4.59991,2470.227,2020-12-10T06:47:06Z
2020-12-10T04:49:10Z,42.805,6.029,13.2982,4.59990,2470.25,2020-12-10T06:50:09Z
2020-12-10T04:52:13Z,42.805,6.029,13.2979,4.59994,2470.264,2020-12-10T06:53:12Z
2020-12-10T04:55:16Z,42.805,6.029,13.2976,4.59999,2470.227,2020-12-10T06:56:15Z
2020-12-10T04:58:20Z,42.805,6.029,13.2983,4.59996,2470.203,2020-12-10T06:59:18Z
2020-12-10T05:01:23Z,42.805,6.029,13.2979,4.59996,2470.25,2020-12-10T07:02:21Z
2020-12-10T05:04:26Z,42.805,6.029,13.2983,4.59994,2470.217,2020-12-10T07:05:24Z
2020-12-10T05:07:29Z,42.805,6.029,13.2984,4.59991,2470.227,2020-12-10T07:08:27Z
2020-12-10T05:10:32Z,42.805,6.029,13.2981,4.59992,2470.203,2020-12-10T07:11:31Z
2020-12-10T05:13:35Z,42.805,6.029,13.2982,4.59988,2470.203,2020-12-10T07:14:34Z
2020-12-10T05:16:38Z,42.805,6.029,13.2979,4.59988,2470.227,2020-12-10T07:17:37Z
2020-12-10T05:19:41Z,42.805,6.029,13.2983,4.59990,2470.25,2020-12-10T07:20:40Z
2020-12-10T05:22:45Z,42.805,6.029,13.2980,4.59991,2470.273,2020-12-10T07:23:43Z
2020-12-10T05:25:48Z,42.805,6.029,13.2984,4.59996,2470.203,2020-12-10T07:26:46Z
2020-12-10T05:28:51Z,42.805,6.029,13.2984,4.59997,2470.203,2020-12-10T07:29:49Z
2020-12-10T05:31:54Z,42.805,6.029,13.2982,4.60000,2470.24,2020-12-10T07:32:52Z
2020-12-10T05:34:57Z,42.805,6.029,13.2977,4.59995,2470.227,2020-12-10T07:35:56Z
2020-12-10T05:38:00Z,42.805,6.029,13.2981,4.59997,2470.227,2020-12-10T07:38:59Z
2020-12-10T05:41:03Z,42.805,6.029,13.2979,4.59996,2470.217,2020-12-10T07:42:02Z
2020-12-10T05:44:06Z,42.805,6.029,13.2984,4.60001,2470.203,2020-12-10T07:45:05Z
2020-12-10T05:47:10Z,42.805,6.029,13.2978,4.59995,2470.227,2020-12-10T07:48:08Z
2020-12-10T05:50:13Z,42.805,6.029,13.2981,4.59994,2470.203,2020-12-10T07:51:11Z
2020-12-10T05:53:16Z,42.805,6.029,13.2982,4.59991,2470.227,2020-12-10T07:54:14Z
2020-12-10T05:56:19Z,42.805,6.029,13.2987,4.60003,2470.203,2020-12-10T07:57:17Z
2020-12-10T05:59:22Z,42.805,6.029,13.2986,4.60000,2470.217,2020-12-10T08:00:21Z
2020-12-10T06:02:25Z,42.805,6.029,13.2982,4.59999,2470.217,2020-12-10T08:03:24Z
2020-12-10T06:05:28Z,42.805,6.029,13.2982,4.59997,2470.203,2020-12-10T08:06:27Z
2020-12-10T06:08:31Z,42.805,6.029,13.2981,4.60000,2470.194,2020-12-10T08:09:30Z
2020-12-10T06:11:35Z,42.805,6.029,13.2981,4.59999,2470.227,2020-12-10T08:12:33Z
2020-12-10T06:14:38Z,42.805,6.029,13.2983,4.59997,2470.217,2020-12-10T08:15:36Z
2020-12-10T06:17:41Z,42.805,6.029,13.2982,4.59993,2470.18,2020-12-10T08:18:39Z
2020-12-10T06:20:44Z,42.805,6.029,13.2986,4.60000,2470.217,2020-12-10T08:21:42Z
2020-12-10T06:23:47Z,42.805,6.029,13.2981,4.59991,2470.18,2020-12-10T08:24:45Z
2020-12-10T06:26:50Z,42.805,6.029,13.2982,4.60001,2470.203,2020-12-10T08:27:49Z
2020-12-10T06:29:53Z,42.805,6.029,13.2981,4.59992,2470.18,2020-12-10T08:30:52Z
2020-12-10T06:32:56Z,42.805,6.029,13.2987,4.59997,2470.18,2020-12-10T08:33:55Z
2020-12-10T06:35:59Z,42.805,6.029,13.2983,4.59988,2470.194,2020-12-10T08:36:58Z
2020-12-10T06:39:03Z,42.805,6.029,13.2982,4.59994,2470.217,2020-12-10T08:40:01Z
2020-12-10T06:42:06Z,42.805,6.029,13.2985,4.59997,2470.194,2020-12-10T08:43:04Z
2020-12-10T06:45:09Z,42.805,6.029,13.2986,4.59999,2470.18,2020-12-10T08:46:07Z
2020-12-10T06:48:12Z,42.805,6.029,13.2979,4.59993,2470.18,2020-12-10T08:49:10Z
2020-12-10T06:51:15Z,42.805,6.029,13.2984,4.59996,2470.203,2020-12-10T08:52:14Z
2020-12-10T06:54:18Z,42.805,6.029,13.2983,4.60000,2470.203,2020-12-10T08:55:17Z
2020-12-10T06:57:21Z,42.805,6.029,13.2982,4.59996,2470.203,2020-12-10T08:58:20Z
2020-12-10T07:00:24Z,42.805,6.029,13.2985,4.59994,2470.203,2020-12-10T09:01:23Z
2020-12-10T07:03:28Z,42.805,6.029,13.2984,4.59999,2470.203,2020-12-10T09:04:26Z
2020-12-10T07:06:31Z,42.805,6.029,13.2976,4.60000,2470.203,2020-12-10T09:07:29Z
2020-12-10T07:09:34Z,42.805,6.029,13.2982,4.59987,2470.18,2020-12-10T09:10:32Z
2020-12-10T07:12:37Z,42.805,6.029,13.2980,4.59996,2470.156,2020-12-10T09:13:35Z
2020-12-10T07:15:40Z,42.805,6.029,13.2985,4.60003,2470.203,2020-12-10T09:16:39Z
2020-12-10T07:18:43Z,42.805,6.029,13.2984,4.60002,2470.18,2020-12-10T09:19:42Z
2020-12-10T07:21:46Z,42.805,6.029,13.2981,4.59993,2470.18,2020-12-10T09:22:45Z
2020-12-10T07:24:49Z,42.805,6.029,13.2978,4.59988,2470.18,2020-12-10T09:25:48Z
2020-12-10T07:27:53Z,42.805,6.029,13.2986,4.59997,2470.156,2020-12-10T09:28:51Z
2020-12-10T07:30:56Z,42.805,6.029,13.2982,4.60001,2470.18,2020-12-10T09:31:54Z
2020-12-10T07:33:59Z,42.805,6.029,13.2986,4.59990,2470.156,2020-12-10T09:34:57Z
2020-12-10T07:37:02Z,42.805,6.029,13.2981,4.60000,2470.203,2020-12-10T09:38:00Z
2020-12-10T07:40:05Z,42.805,6.029,13.2987,4.59999,2470.18,2020-12-10T09:41:04Z
2020-12-10T07:43:08Z,42.805,6.029,13.2982,4.59996,2470.156,2020-12-10T09:44:07Z
2020-12-10T07:46:11Z,42.805,6.029,13.2984,4.59994,2470.18,2020-12-10T09:47:10Z
2020-12-10T07:49:14Z,42.805,6.029,13.2983,4.59996,2470.156,2020-12-10T09:50:13Z
2020-12-10T07:52:18Z,42.805,6.029,13.2979,4.59999,2470.203,2020-12-10T09:53:16Z
2020-12-10T07:55:21Z,42.805,6.029,13.2983,4.59999,2470.143,2020-12-10T09:56:19Z
2020-12-10T07:58:24Z,42.805,6.029,13.2986,4.60000,2470.194,2020-12-10T09:59:22Z
2020-12-10T08:01:27Z,42.805,6.029,13.2982,4.59999,2470.147,2020-12-10T10:02:25Z
2020-12-10T08:04:30Z,42.805,6.029,13.2983,4.60002,2470.156,2020-12-10T10:05:29Z
2020-12-10T08:07:33Z,42.805,6.029,13.2982,4.59996,2470.171,2020-12-10T10:08:32Z
2020-12-10T08:10:36Z,42.805,6.029,13.2982,4.59994,2470.171,2020-12-10T10:11:35Z
2020-12-10T08:13:39Z,42.805,6.029,13.2986,4.59998,2470.156,2020-12-10T10:14:38Z
2020-12-10T08:16:43Z,42.805,6.029,13.2985,4.59998,2470.156,2020-12-10T10:17:41Z
2020-12-10T08:19:46Z,42.805,6.029,13.2982,4.60000,2470.156,2020-12-10T10:20:44Z
2020-12-10T08:22:49Z,42.805,6.029,13.2982,4.59992,2470.171,2020-12-10T10:23:47Z
2020-12-10T08:25:52Z,42.805,6.029,13.2979,4.60002,2470.18,2020-12-10T10:26:50Z
2020-12-10T08:28:55Z,42.805,6.029,13.2984,4.59998,2470.18,2020-12-10T10:29:54Z
2020-12-10T08:31:58Z,42.805,6.029,13.2983,4.59994,2470.133,2020-12-10T10:32:57Z
2020-12-10T08:35:01Z,42.805,6.029,13.2984,4.60001,2470.147,2020-12-10T10:36:00Z
2020-12-10T08:38:04Z,42.805,6.029,13.2977,4.60001,2470.171,2020-12-10T10:39:03Z
2020-12-10T08:41:08Z,42.805,6.029,13.2988,4.59992,2470.156,2020-12-10T10:42:06Z
2020-12-10T08:44:11Z,42.805,6.029,13.2977,4.59989,2470.133,2020-12-10T10:45:09Z
2020-12-10T08:47:14Z,42.805,6.029,13.2978,4.60004,2470.133,2020-12-10T10:48:12Z
2020-12-10T08:50:17Z,42.805,6.029,13.2979,4.59996,2470.147,2020-12-10T10:51:15Z
2020-12-10T08:53:20Z,42.805,6.029,13.2982,4.59996,2470.133,2020-12-10T10:54:19Z
2020-12-10T08:56:23Z,42.805,6.029,13.2982,4.59992,2470.147,2020-12-10T10:57:22Z
2020-12-10T08:59:26Z,42.805,6.029,13.2979,4.59993,2470.171,2020-12-10T11:00:25Z
2020-12-10T09:02:29Z,42.805,6.029,13.2985,4.59991,2470.156,2020-12-10T11:03:28Z
2020-12-10T09:05:33Z,42.805,6.029,13.2986,4.59994,2470.171,2020-12-10T11:06:31Z
2020-12-10T09:08:36Z,42.805,6.029,13.2984,4.59997,2470.156,2020-12-10T11:09:34Z
2020-12-10T09:11:39Z,42.805,6.029,13.2979,4.59993,2470.133,2020-12-10T11:12:37Z
2020-12-10T09:14:42Z,42.805,6.029,13.2981,4.60000,2470.18,2020-12-10T11:15:40Z
2020-12-10T09:17:45Z,42.805,6.029,13.2985,4.60001,2470.18,2020-12-10T11:18:44Z
2020-12-10T09:20:48Z,42.805,6.029,13.2982,4.59993,2470.147,2020-12-10T11:21:47Z
2020-12-10T09:23:51Z,42.805,6.029,13.2980,4.60003,2470.18,2020-12-10T11:24:50Z
2020-12-10T09:26:54Z,42.805,6.029,13.2988,4.59996,2470.171,2020-12-10T11:27:53Z
2020-12-10T09:29:58Z,42.805,6.029,13.2985,4.59999,2470.156,2020-12-10T11:30:56Z
2020-12-10T09:33:01Z,42.805,6.029,13.2983,4.59995,2470.147,2020-12-10T11:33:59Z
2020-12-10T09:36:04Z,42.805,6.029,13.2983,4.59994,2470.156,2020-12-10T11:37:02Z
2020-12-10T09:39:07Z,42.805,6.029,13.2982,4.59998,2470.133,2020-12-10T11:40:05Z
2020-12-10T09:42:10Z,42.805,6.029,13.2982,4.59993,2470.11,2020-12-10T11:43:09Z
2020-12-10T09:45:13Z,42.805,6.029,13.2983,4.59995,2470.119,2020-12-10T11:46:12Z
2020-12-10T09:48:16Z,42.805,6.029,13.2982,4.59995,2470.18,2020-12-10T11:49:15Z
2020-12-10T09:51:20Z,42.805,6.029,13.2981,4.59993,2470.156,2020-12-10T11:52:18Z
2020-12-10T09:54:23Z,42.805,6.029,13.2983,4.59996,2470.203,2020-12-10T11:55:21Z
2020-12-10T09:57:26Z,42.805,6.029,13.2981,4.59994,2470.171,2020-12-10T11:58:24Z
2020-12-10T10:00:29Z,42.805,6.029,13.2983,4.59999,2470.18,2020-12-10T12:01:27Z
2020-12-10T10:03:32Z,42.805,6.029,13.2985,4.59998,2470.18,2020-12-10T12:04:31Z
2020-12-10T10:06:35Z,42.805,6.029,13.2982,4.59998,2470.147,2020-12-10T12:07:34Z
2020-12-10T10:09:38Z,42.805,6.029,13.2985,4.60002,2470.156,2020-12-10T12:10:37Z
2020-12-10T10:12:41Z,42.805,6.029,13.2979,4.59993,2470.156,2020-12-10T12:13:40Z
2020-12-10T10:15:45Z,42.805,6.029,13.2984,4.59995,2470.133,2020-12-10T12:16:43Z
2020-12-10T10:18:48Z,42.805,6.029,13.2978,4.59996,2470.194,2020-12-10T12:19:46Z
2020-12-10T10:21:51Z,42.805,6.029,13.2983,4.59999,2470.156,2020-12-10T12:22:49Z
2020-12-10T10:24:54Z,42.805,6.029,13.2983,4.59999,2470.18,2020-12-10T12:25:52Z
2020-12-10T10:27:57Z,42.805,6.029,13.2982,4.60000,2470.203,2020-12-10T12:28:56Z
2020-12-10T10:31:00Z,42.805,6.029,13.2985,4.60000,2470.194,2020-12-10T12:31:59Z
2020-12-10T10:34:03Z,42.805,6.029,13.2983,4.60003,2470.156,2020-12-10T12:35:02Z
2020-12-10T10:37:06Z,42.805,6.029,13.2985,4.60001,2470.18,2020-12-10T12:38:05Z
2020-12-10T10:40:10Z,42.805,6.029,13.2983,4.59998,2470.156,2020-12-10T12:41:08Z
2020-12-10T10:43:13Z,42.805,6.029,13.2984,4.59995,2470.156,2020-12-10T12:44:11Z
2020-12-10T10:46:16Z,42.805,6.029,13.2989,4.60004,2470.194,2020-12-10T12:47:14Z
2020-12-10T10:49:19Z,42.805,6.029,13.2982,4.59997,2470.133,2020-12-10T12:50:17Z
2020-12-10T10:52:22Z,42.805,6.029,13.2982,4.59996,2470.171,2020-12-10T12:53:21Z
2020-12-10T10:55:25Z,42.805,6.029,13.2984,4.59989,2470.156,2020-12-10T12:56:24Z
2020-12-10T10:58:28Z,42.805,6.029,13.2982,4.59996,2470.194,2020-12-10T12:59:27Z
2020-12-10T11:01:31Z,42.805,6.029,13.2979,4.59996,2470.171,2020-12-10T13:02:30Z
2020-12-10T11:04:35Z,42.805,6.029,13.2984,4.60003,2470.194,2020-12-10T13:05:33Z
2020-12-10T11:07:38Z,42.805,6.029,13.2983,4.60005,2470.217,2020-12-10T13:08:36Z
2020-12-10T11:10:41Z,42.805,6.029,13.2993,4.60001,2470.194,2020-12-10T13:11:39Z
2020-12-10T11:13:44Z,42.805,6.029,13.2985,4.59991,2470.156,2020-12-10T13:14:42Z
2020-12-10T11:16:47Z,42.805,6.029,13.2986,4.59999,2470.194,2020-12-10T13:17:46Z
2020-12-10T11:19:50Z,42.805,6.029,13.2982,4.59997,2470.18,2020-12-10T13:20:49Z
2020-12-10T11:22:53Z,42.805,6.029,13.2986,4.59996,2470.18,2020-12-10T13:23:52Z
2020-12-10T11:25:56Z,42.805,6.029,13.2984,4.59999,2470.18,2020-12-10T13:26:55Z
2020-12-10T11:29:00Z,42.805,6.029,13.2986,4.60003,2470.18,2020-12-10T13:29:58Z
2020-12-10T11:32:03Z,42.805,6.029,13.2983,4.59995,2470.18,2020-12-10T13:33:01Z
2020-12-10T11:35:06Z,42.805,6.029,13.2983,4.59996,2470.18,2020-12-10T13:36:04Z
2020-12-10T11:38:09Z,42.805,6.029,13.2990,4.59998,2470.156,2020-12-10T13:39:07Z
2020-12-10T11:41:12Z,42.805,6.029,13.2982,4.59995,2470.171,2020-12-10T13:42:11Z
2020-12-10T11:44:15Z,42.805,6.029,13.2983,4.59999,2470.203,2020-12-10T13:45:14Z
2020-12-10T11:47:18Z,42.805,6.029,13.2983,4.59995,2470.18,2020-12-10T13:48:17Z
2020-12-10T11:50:21Z,42.805,6.029,13.2982,4.59995,2470.217,2020-12-10T13:51:20Z
2020-12-10T11:53:25Z,42.805,6.029,13.2981,4.59996,2470.18,2020-12-10T13:54:23Z
2020-12-10T11:56:28Z,42.805,6.029,13.2985,4.59994,2470.18,2020-12-10T13:57:26Z
2020-12-10T11:59:31Z,42.805,6.029,13.2984,4.59990,2470.203,2020-12-10T14:00:29Z
2020-12-10T12:02:34Z,42.805,6.029,13.2989,4.60000,2470.203,2020-12-10T14:03:32Z
2020-12-10T12:05:37Z,42.805,6.029,13.2988,4.59997,2470.217,2020-12-10T14:06:36Z
2020-12-10T12:08:40Z,42.805,6.029,13.2986,4.59998,2470.203,2020-12-10T14:09:39Z
2020-12-10T12:11:43Z,42.805,6.029,13.2984,4.60001,2470.203,2020-12-10T14:12:42Z
2020-12-10T12:14:46Z,42.805,6.029,13.2990,4.60003,2470.24,2020-12-10T14:15:45Z
2020-12-10T12:17:50Z,42.805,6.029,13.2987,4.60002,2470.217,2020-12-10T14:18:48Z
2020-12-10T12:20:53Z,42.805,6.029,13.2982,4.59996,2470.203,2020-12-10T14:21:51Z
2020-12-10T12:23:56Z,42.805,6.029,13.2991,4.59997,2470.194,2020-12-10T14:24:54Z
2020-12-10T12:26:59Z,42.805,6.029,13.2988,4.59991,2470.203,2020-12-10T14:27:58Z
2020-12-10T12:30:02Z,42.805,6.029,13.2982,4.60006,2470.18,2020-12-10T14:31:01Z
2020-12-10T12:33:05Z,42.805,6.029,13.2985,4.59991,2470.24,2020-12-10T14:34:04Z
2020-12-10T12:36:08Z,42.805,6.029,13.2983,4.59994,2470.203,2020-12-10T14:37:07Z
2020-12-10T12:39:12Z,42.805,6.029,13.2984,4.59999,2470.18,2020-12-10T14:40:10Z
2020-12-10T12:42:15Z,42.805,6.029,13.2984,4.59993,2470.24,2020-12-10T14:43:13Z
2020-12-10T12:45:18Z,42.805,6.029,13.2987,4.59999,2470.203,2020-12-10T14:46:16Z
2020-12-10T12:48:21Z,42.805,6.029,13.2986,4.59994,2470.227,2020-12-10T14:49:19Z
2020-12-10T12:51:24Z,42.805,6.029,13.2981,4.59997,2470.273,2020-12-10T14:52:23Z
2020-12-10T12:54:27Z,42.805,6.029,13.2983,4.59999,2470.217,2020-12-10T14:55:26Z
2020-12-10T12:57:30Z,42.805,6.029,13.2986,4.59995,2470.227,2020-12-10T14:58:29Z
2020-12-10T13:00:33Z,42.805,6.029,13.2986,4.59999,2470.25,2020-12-10T15:01:32Z
2020-12-10T13:03:37Z,42.805,6.029,13.2984,4.60001,2470.203,2020-12-10T15:04:35Z
2020-12-10T13:06:40Z,42.805,6.029,13.2982,4.59991,2470.203,2020-12-10T15:07:38Z
2020-12-10T13:09:43Z,42.805,6.029,13.2982,4.59995,2470.227,2020-12-10T15:10:41Z
2020-12-10T13:12:46Z,42.805,6.029,13.2988,4.60003,2470.203,2020-12-10T15:13:44Z
2020-12-10T13:15:49Z,42.805,6.029,13.2988,4.60002,2470.203,2020-12-10T15:16:48Z
2020-12-10T13:18:52Z,42.805,6.029,13.2984,4.59993,2470.227,2020-12-10T15:19:51Z
2020-12-10T13:21:55Z,42.805,6.029,13.2983,4.59996,2470.24,2020-12-10T15:22:54Z
2020-12-10T13:24:58Z,42.805,6.029,13.2986,4.59993,2470.227,2020-12-10T15:25:57Z
2020-12-10T13:28:02Z,42.805,6.029,13.2982,4.59996,2470.227,2020-12-10T15:29:00Z
2020-12-10T13:31:05Z,42.805,6.029,13.2986,4.59996,2470.25,2020-12-10T15:32:03Z
2020-12-10T13:34:08Z,42.805,6.029,13.2980,4.59995,2470.227,2020-12-10T15:35:06Z
2020-12-10T13:37:11Z,42.805,6.029,13.2982,4.59992,2470.24,2020-12-10T15:38:10Z
2020-12-10T13:40:14Z,42.805,6.029,13.2986,4.59995,2470.287,2020-12-10T15:41:13Z
2020-12-10T13:43:17Z,42.805,6.029,13.2983,4.59991,2470.264,2020-12-10T15:44:16Z
2020-12-10T13:46:20Z,42.805,6.029,13.2983,4.59994,2470.25,2020-12-10T15:47:19Z
2020-12-10T13:49:24Z,42.805,6.029,13.2983,4.59993,2470.213,2020-12-10T15:50:22Z
2020-12-10T13:52:27Z,42.805,6.029,13.2983,4.59996,2470.25,2020-12-10T15:53:25Z
2020-12-10T13:55:30Z,42.805,6.029,13.2985,4.59991,2470.227,2020-12-10T15:56:28Z
2020-12-10T13:58:33Z,42.805,6.029,13.2987,4.59998,2470.25,2020-12-10T15:59:31Z
2020-12-10T14:01:36Z,42.805,6.029,13.2983,4.59999,2470.25,2020-12-10T16:02:35Z
2020-12-10T14:04:39Z,42.805,6.029,13.2990,4.59997,2470.24,2020-12-10T16:05:38Z
2020-12-10T14:07:42Z,42.805,6.029,13.2983,4.59995,2470.24,2020-12-10T16:08:41Z
2020-12-10T14:10:45Z,42.805,6.029,13.2982,4.59991,2470.264,2020-12-10T16:11:44Z
2020-12-10T14:13:49Z,42.805,6.029,13.2980,4.59995,2470.264,2020-12-10T16:14:47Z
2020-12-10T14:16:52Z,42.805,6.029,13.2982,4.59995,2470.25,2020-12-10T16:17:50Z
2020-12-10T14:19:55Z,42.805,6.029,13.2983,4.59997,2470.287,2020-12-10T16:20:53Z
2020-12-10T14:22:58Z,42.805,6.029,13.2982,4.59994,2470.24,2020-12-10T16:23:56Z
2020-12-10T14:26:01Z,42.805,6.029,13.2979,4.59990,2470.25,2020-12-10T16:27:00Z
2020-12-10T14:29:04Z,42.805,6.029,13.2988,4.59995,2470.264,2020-12-10T16:30:03Z
2020-12-10T14:32:07Z,42.805,6.029,13.2986,4.59996,2470.287,2020-12-10T16:33:06Z
2020-12-10T14:35:10Z,42.805,6.029,13.2983,4.59995,2470.273,2020-12-10T16:36:09Z
2020-12-10T14:38:14Z,42.805,6.029,13.2984,4.59994,2470.264,2020-12-10T16:39:12Z
2020-12-10T14:41:17Z,42.805,6.029,13.2987,4.60002,2470.273,2020-12-10T16:42:15Z
2020-12-10T14:44:20Z,42.805,6.029,13.2990,4.59996,2470.31,2020-12-10T16:45:18Z
2020-12-10T14:47:23Z,42.805,6.029,13.2987,4.59992,2470.273,2020-12-10T16:48:21Z
2020-12-10T14:50:26Z,42.805,6.029,13.2982,4.59992,2470.227,2020-12-10T16:51:25Z
2020-12-10T14:53:29Z,42.805,6.029,13.2987,4.59994,2470.297,2020-12-10T16:54:28Z
2020-12-10T14:56:32Z,42.805,6.029,13.2986,4.59994,2470.25,2020-12-10T16:57:31Z
2020-12-10T14:59:35Z,42.805,6.029,13.2988,4.60006,2470.24,2020-12-10T17:00:34Z
2020-12-10T15:02:39Z,42.805,6.029,13.2983,4.59999,2470.297,2020-12-10T17:03:37Z